Marshalltown, IA

8:42 PM CDT on March 29, 2017 (GMT -0500)
Marshalltown Municipal

Weather History for KMIW - March, 2012

Change the Weather History Date:

Sunday, March 4, 2012

  Actual Average Record
Temperature  
Mean Temperature 20 °F 30 °F  
Max Temperature 28 °F 39 °F 56 °F (2017)
Min Temperature 12 °F 21 °F -7 °F (2002)
Degree Days  
Heating Degree Days 45 35  
Month to date heating degree days 140 142  
Since 1 July heating degree days 4756 5545  
Cooling Degree Days 0 0  
Month to date cooling degree days 0 0  
Year to date cooling degree days 0 0  
Moisture  
Dew Point 19 °F    
Average Humidity 80    
Maximum Humidity 92    
Minimum Humidity 68    
Precipitation  
Precipitation T in 0.05 in 0.64 in (2004)
Month to date precipitation 0.02 0.20  
Year to date precipitation 0.85  
Sea Level Pressure  
Sea Level Pressure 29.93 in    
Wind  
Wind Speed 5 mph (NW)    
Max Wind Speed 14 mph    
Max Gust Speed 38 mph    
Visibility 5 miles    
Events Fog , Snow    
T = Trace of Precipitation, MM = Missing Value Source: NWS Daily Summary

Daily Weather History Graph

Daily Weather History Graph

Search for Another Location

Airport or City:

Trip Planner

Search our weather history database for the weather conditions in past years. The results will help you decide how hot, cold, wet, or windy it might be!

Date:

Astronomy

Mar. 04, 2012 Rise Set
Actual Time 6:41 AM CST 6:05 PM CST
Civil Twilight 6:13 AM CST 6:33 PM CST
Nautical Twilight 5:40 AM CST 7:06 PM CST
Astronomical Twilight 5:08 AM CST 7:38 PM CST
Moon 2:15 PM CST (3/4) 4:05 AM CST (3/4)
Length of Visible Light 12h 20m
Length of Day
11h 24m
Waxing Gibbous, 84% of the Moon is Illuminated
Mar 4
Waxing Gibbous
Mar 8
Full
Mar 14
Last Quarter
Mar 22
New
Mar 30
First Quarter

Hourly Weather History & Observations

Time (CST) Temp. Windchill Dew Point Humidity Pressure Visibility Wind Dir Wind Speed Gust Speed Precip Events Conditions
12:53 AM 21.9 °F 11.7 °F 15.1 °F 75% 29.91 in 10.0 mi NW 9.2 mph - N/A   Partly Cloudy
1:53 AM 19.9 °F 13.4 °F 14.0 °F 78% 29.91 in 10.0 mi North 4.6 mph - N/A   Clear
2:53 AM 19.9 °F 13.4 °F 14.0 °F 78% 29.91 in 10.0 mi NNW 4.6 mph - N/A   Clear
3:53 AM 18.0 °F - 14.0 °F 84% 29.91 in 10.0 mi Calm Calm - N/A   Clear
4:53 AM 16.0 °F - 12.9 °F 88% 29.92 in 10.0 mi Calm Calm - N/A   Clear
5:53 AM 16.0 °F - 12.9 °F 88% 29.92 in 10.0 mi Calm Calm - N/A   Clear
6:53 AM 15.1 °F - 10.9 °F 84% 29.94 in 10.0 mi Calm Calm - N/A   Clear
7:53 AM 21.0 °F 16.2 °F 17.1 °F 85% 29.94 in 10.0 mi South 3.5 mph - N/A   Scattered Clouds
8:53 AM 23.0 °F - 18.0 °F 81% 29.93 in 10.0 mi Calm Calm - N/A   Overcast
9:25 AM 24.8 °F - 17.6 °F 74% 29.89 in 10.0 mi Calm Calm - N/A   Overcast
9:53 AM 24.1 °F - 18.0 °F 77% 29.94 in 10.0 mi Calm Calm - N/A   Overcast
10:53 AM 25.0 °F - 18.0 °F 75% 29.93 in 10.0 mi Calm Calm - N/A   Overcast
11:53 AM 26.1 °F - 19.0 °F 75% 29.92 in 3.0 mi Calm Calm - 0.00 in Snow Light Snow
12:09 PM 26.6 °F - 19.4 °F 74% 29.87 in 2.5 mi Calm Calm - 0.00 in Snow Light Snow
12:24 PM 26.6 °F - 19.4 °F 74% 29.88 in 6.0 mi Calm Calm - 0.00 in Snow Light Snow
12:53 PM 27.0 °F - 19.9 °F 75% 29.91 in 2.5 mi Calm Calm - 0.00 in Snow Light Snow
1:04 PM 26.6 °F - 19.4 °F 74% 29.86 in 1.8 mi Calm Calm - 0.00 in Snow Light Snow
1:12 PM 26.6 °F 22.6 °F 19.4 °F 74% 29.85 in 3.0 mi South 3.5 mph - 0.00 in Snow Light Snow
1:31 PM 26.6 °F 20.0 °F 21.2 °F 80% 29.83 in 2.0 mi South 5.8 mph - 0.00 in Snow Light Snow
1:53 PM 27.0 °F 20.5 °F 21.9 °F 81% 29.88 in 2.0 mi SSW 5.8 mph - 0.00 in Snow Light Snow
2:05 PM 26.6 °F 22.6 °F 21.2 °F 80% 29.84 in 6.0 mi SW 3.5 mph - 0.00 in   Haze
2:13 PM 26.6 °F 20.0 °F 21.2 °F 80% 29.85 in 2.5 mi West 5.8 mph - 0.00 in Snow Light Snow
2:18 PM 26.6 °F 20.0 °F 23.0 °F 86% 29.86 in 1.0 mi West 5.8 mph - 0.00 in Snow Light Snow
2:24 PM 26.6 °F 19.1 °F 23.0 °F 86% 29.87 in 0.5 mi WNW 6.9 mph - 0.00 in Fog , Snow Snow
2:41 PM 26.6 °F 20.0 °F 24.8 °F 93% 29.88 in 0.2 mi WNW 5.8 mph - 0.00 in Fog , Snow Snow
2:53 PM 27.0 °F 19.5 °F 24.1 °F 89% 29.92 in 0.5 mi West 6.9 mph - 0.00 in Fog , Snow Snow
3:11 PM 26.6 °F 21.2 °F 24.8 °F 93% 29.87 in 0.5 mi West 4.6 mph - 0.00 in Fog , Snow Snow
3:25 PM 28.4 °F 24.6 °F 24.8 °F 86% 29.87 in 1.0 mi West 3.5 mph - 0.00 in Snow Light Snow
3:35 PM 26.6 °F 20.0 °F 23.0 °F 86% 29.88 in 2.0 mi NW 5.8 mph - 0.00 in Snow Light Snow
3:41 PM 26.6 °F 21.2 °F 23.0 °F 86% 29.88 in 3.0 mi NW 4.6 mph - 0.00 in Snow Light Snow
3:53 PM 27.0 °F 21.6 °F 23.0 °F 85% 29.93 in 7.0 mi NNW 4.6 mph - 0.00 in   Overcast
4:02 PM 28.4 °F 23.3 °F 23.0 °F 80% 29.89 in 9.0 mi NNW 4.6 mph - N/A   Overcast
4:12 PM 26.6 °F 21.2 °F 23.0 °F 86% 29.89 in 1.8 mi NW 4.6 mph - 0.00 in Snow Light Snow
4:16 PM 26.6 °F 20.0 °F 23.0 °F 86% 29.90 in 1.5 mi North 5.8 mph - 0.00 in Snow Light Snow
4:23 PM 28.4 °F 21.2 °F 23.0 °F 80% 29.90 in 1.8 mi NNW 6.9 mph - 0.00 in Snow Light Snow
4:45 PM 28.4 °F 22.2 °F 24.8 °F 86% 29.91 in 1.0 mi NNW 5.8 mph - 0.00 in Snow Light Snow
4:53 PM 27.0 °F 19.5 °F 24.1 °F 89% 29.97 in 1.0 mi NNW 6.9 mph - 0.00 in Snow Light Snow
5:08 PM 26.6 °F 16.8 °F 23.0 °F 86% 29.93 in 1.5 mi NNW 10.4 mph - 0.00 in Snow Light Snow
5:26 PM 26.6 °F 15.2 °F 23.0 °F 86% 29.95 in 1.2 mi North 13.8 mph - 0.00 in Snow Light Snow
5:41 PM 26.6 °F 16.2 °F 21.2 °F 80% 29.96 in 0.8 mi North 11.5 mph - 0.00 in Snow Light Snow
5:49 PM 24.8 °F 14.0 °F 21.2 °F 86% 29.96 in 1.2 mi North 11.5 mph - 0.00 in Snow Light Snow
5:53 PM 25.0 °F 14.2 °F 21.0 °F 85% 30.01 in 1.5 mi North 11.5 mph - 0.00 in Snow Light Snow
6:05 PM 24.8 °F 14.6 °F 19.4 °F 80% 29.97 in 2.5 mi North 10.4 mph - 0.00 in Snow Light Snow
6:08 PM 24.8 °F 15.3 °F 19.4 °F 80% 29.97 in 3.0 mi North 9.2 mph - 0.00 in Snow Light Snow
6:48 PM 19.4 °F 9.5 °F 15.8 °F 86% 30.00 in 9.0 mi North 8.1 mph - 0.00 in   Overcast
6:53 PM 19.0 °F 10.0 °F 16.0 °F 88% 30.06 in 10.0 mi NNW 6.9 mph - 0.00 in   Mostly Cloudy
7:53 PM 18.0 °F 6.9 °F 15.1 °F 88% 30.09 in 10.0 mi NNW 9.2 mph - N/A   Clear
8:53 PM 12.9 °F 0.7 °F 10.0 °F 88% 30.12 in 8.0 mi NW 9.2 mph - N/A   Clear
9:53 PM 12.9 °F 0.7 °F 10.0 °F 88% 30.15 in 10.0 mi WNW 9.2 mph - N/A   Clear
10:53 PM 12.9 °F -0.2 °F 10.0 °F 88% 30.17 in 10.0 mi WNW 10.4 mph - N/A   Clear
11:53 PM 12.9 °F 0.7 °F 10.0 °F 88% 30.18 in 10.0 mi WNW 9.2 mph - N/A   Clear